AFR111 ZSPD-LFPG

Flight info

Callsign AFR111
Flight time N/A
Altitude 30100
Route PIK83D PIKAS G330 PIMOL A593 DALIM W157 VYK G212 SOTMU B339 ASILA A575 UPREK W28 LAGEB W66 NUKTI B215 FKG A368 SARIN/K0893F302 N161 GASBI/N0481F302 N161 LEYLA N644 LAGAS DCT FOQUS DCT ROLIN DCT OLDUD DCT ODERO DCT OPT DCT IRLOX DCT BALUX DCT BEGLA DCT LAMSI DCT ASPAT DCT VIBOM DCT IDOSA DCT TOLVU DCT RAPOR DCT VEDUS
Aircraft B772/H-SDE2E3FGHIJ5LORVWXY/LB1D1

Departure

Time 2026-05-06 08:53
Airport Shanghai Pudong International Airport (ZSPD)

Arrival

Time N/A
Airport Charles de Gaulle International Airport (LFPG)
Time Latitude Longitude Altitude Speed Heading
2026-05-06 08:03 31.14674 121.79824 27 ft 0 kts 72°
2026-05-06 08:43 31.14673 121.79817 27 ft 4 kts 72°
2026-05-06 08:43 31.14664 121.79787 26 ft 4 kts 72°
2026-05-06 08:44 31.14656 121.79757 25 ft 4 kts 72°
2026-05-06 08:44 31.14650 121.79731 25 ft 4 kts 91°
2026-05-06 08:44 31.14658 121.79708 24 ft 4 kts 155°
2026-05-06 08:44 31.14681 121.79699 25 ft 2 kts 162°
2026-05-06 08:45 31.14686 121.79698 26 ft 0 kts 162°
2026-05-06 08:47 31.14667 121.79705 25 ft 10 kts 162°
2026-05-06 08:47 31.14596 121.79678 27 ft 14 kts 240°
2026-05-06 08:48 31.14563 121.79559 27 ft 14 kts 265°
2026-05-06 08:48 31.14639 121.79485 27 ft 18 kts 342°
2026-05-06 08:48 31.14772 121.79438 27 ft 21 kts 342°
2026-05-06 08:48 31.14910 121.79386 27 ft 21 kts 342°
2026-05-06 08:49 31.15049 121.79333 27 ft 21 kts 342°
2026-05-06 08:49 31.15184 121.79282 27 ft 19 kts 342°
2026-05-06 08:49 31.15312 121.79234 27 ft 19 kts 342°
2026-05-06 08:49 31.15440 121.79186 27 ft 19 kts 342°
2026-05-06 08:50 31.15568 121.79138 27 ft 19 kts 342°
2026-05-06 08:50 31.15700 121.79088 27 ft 22 kts 342°
2026-05-06 08:50 31.15795 121.79051 27 ft 22 kts 341°
2026-05-06 08:50 31.15984 121.78977 26 ft 22 kts 342°
2026-05-06 08:51 31.16121 121.78929 26 ft 15 kts 343°
2026-05-06 08:51 31.16175 121.78857 27 ft 14 kts 259°
2026-05-06 08:51 31.16146 121.78752 27 ft 14 kts 254°
2026-05-06 08:51 31.16116 121.78649 27 ft 14 kts 233°
2026-05-06 08:52 31.16060 121.78627 26 ft 14 kts 172°
2026-05-06 08:52 31.15958 121.78664 29 ft 22 kts 162°
2026-05-06 08:52 31.15620 121.78793 28 ft 89 kts 162°
2026-05-06 08:52 31.14432 121.79241 34 ft 178 kts 161°
2026-05-06 08:53 31.13175 121.79699 633 ft 189 kts 160°
2026-05-06 08:53 31.11917 121.80142 1652 ft 190 kts 165°
2026-05-06 08:53 31.10643 121.80568 2386 ft 195 kts 165°
2026-05-06 08:53 31.09742 121.80862 2459 ft 213 kts 164°
2026-05-06 08:54 31.08259 121.81341 2789 ft 223 kts 165°
2026-05-06 08:54 31.06773 121.81821 3491 ft 221 kts 165°
2026-05-06 08:54 31.04747 121.82477 3975 ft 239 kts 166°
2026-05-06 08:54 31.03088 121.83001 4266 ft 254 kts 168°
2026-05-06 08:55 31.01319 121.83063 4710 ft 262 kts 194°
2026-05-06 08:55 31.00179 121.82535 5088 ft 263 kts 212°
2026-05-06 08:55 30.98821 121.81092 5636 ft 266 kts 234°
2026-05-06 08:55 30.98062 121.79162 5888 ft 266 kts 252°
2026-05-06 08:56 30.97537 121.77097 5887 ft 267 kts 252°
2026-05-06 08:56 30.96981 121.75029 5874 ft 267 kts 250°
2026-05-06 08:56 30.96425 121.72978 5859 ft 266 kts 254°
2026-05-06 08:56 30.96301 121.70842 5992 ft 267 kts 280°
2026-05-06 08:57 30.96757 121.68722 6414 ft 273 kts 281°
2026-05-06 08:57 30.97165 121.66556 6962 ft 276 kts 281°
2026-05-06 08:57 30.97560 121.64359 7514 ft 278 kts 281°
2026-05-06 08:57 30.97954 121.62187 8112 ft 279 kts 281°
2026-05-06 08:58 30.98355 121.59981 8713 ft 281 kts 281°
2026-05-06 08:58 30.98766 121.57745 9299 ft 281 kts 281°
2026-05-06 08:58 30.99174 121.55519 9939 ft 282 kts 282°
2026-05-06 08:58 30.99590 121.53256 10305 ft 292 kts 282°
2026-05-06 08:59 31.00030 121.50859 10417 ft 311 kts 281°
2026-05-06 08:59 31.00495 121.48323 10532 ft 330 kts 282°
2026-05-06 08:59 31.00988 121.45632 10643 ft 349 kts 282°
2026-05-06 08:59 31.01498 121.42861 11040 ft 357 kts 282°
2026-05-06 09:00 31.02022 121.40015 11627 ft 360 kts 281°
2026-05-06 09:00 31.02547 121.37164 12326 ft 361 kts 281°
2026-05-06 09:00 31.03079 121.34267 12747 ft 369 kts 282°
2026-05-06 09:00 31.03619 121.31316 13261 ft 376 kts 282°
2026-05-06 09:01 31.04168 121.28312 13739 ft 381 kts 282°
2026-05-06 09:01 31.04721 121.25284 14279 ft 382 kts 282°
2026-05-06 09:01 31.05275 121.22243 14772 ft 385 kts 282°
2026-05-06 09:01 31.05856 121.19182 15161 ft 386 kts 285°
2026-05-06 09:02 31.06992 121.16370 15387 ft 396 kts 306°
2026-05-06 09:02 31.08985 121.14131 15805 ft 403 kts 324°
2026-05-06 09:02 31.11482 121.12627 16306 ft 408 kts 338°
2026-05-06 09:02 31.14269 121.11985 16708 ft 411 kts 355°
2026-05-06 09:03 31.17147 121.11897 16927 ft 418 kts 356°
2026-05-06 09:03 31.20076 121.11817 17270 ft 423 kts 355°
2026-05-06 09:03 31.23023 121.11695 17723 ft 425 kts 355°
2026-05-06 09:03 31.25979 121.11538 18195 ft 426 kts 354°
2026-05-06 09:04 31.28947 121.11367 18567 ft 428 kts 354°
2026-05-06 09:04 31.31885 121.11194 18929 ft 430 kts 354°
2026-05-06 09:04 31.34882 121.11020 19311 ft 432 kts 354°
2026-05-06 09:04 31.37896 121.11015 19682 ft 436 kts
2026-05-06 09:05 31.40929 121.11274 20043 ft 438 kts
2026-05-06 09:05 31.43963 121.11516 20306 ft 434 kts 356°
2026-05-06 09:05 31.46917 121.10929 20379 ft 431 kts 334°
2026-05-06 09:05 31.49588 121.09401 20545 ft 429 kts 330°
2026-05-06 09:06 31.52281 121.07845 20815 ft 433 kts 331°
2026-05-06 09:06 31.54975 121.06369 21213 ft 433 kts 332°
2026-05-06 09:06 31.57720 121.04901 21624 ft 434 kts 332°
2026-05-06 09:06 31.60477 121.03439 21975 ft 436 kts 332°
2026-05-06 09:07 31.63247 121.01971 22308 ft 438 kts 332°
2026-05-06 09:07 31.66028 121.00495 22622 ft 440 kts 332°
2026-05-06 09:07 31.68819 120.99011 22956 ft 442 kts 332°
2026-05-06 09:07 31.71626 120.97515 23262 ft 444 kts 332°
2026-05-06 09:08 31.74441 120.96013 23572 ft 445 kts 332°
2026-05-06 09:08 31.77232 120.94522 23811 ft 448 kts 332°
2026-05-06 09:08 31.80071 120.93004 24067 ft 449 kts 332°
2026-05-06 09:08 31.82919 120.91480 24354 ft 450 kts 332°
2026-05-06 09:09 31.85774 120.89951 24627 ft 451 kts 332°
2026-05-06 09:09 31.88632 120.88419 24892 ft 453 kts 332°
2026-05-06 09:09 31.91505 120.86879 25149 ft 454 kts 332°
2026-05-06 09:09 31.94385 120.85334 25414 ft 456 kts 332°
2026-05-06 09:10 31.97273 120.83784 25678 ft 457 kts 332°
2026-05-06 09:10 32.00139 120.82241 25891 ft 460 kts 332°
2026-05-06 09:10 32.03053 120.80671 26142 ft 461 kts 332°
2026-05-06 09:10 32.05975 120.79095 26415 ft 462 kts 332°
2026-05-06 09:11 32.08903 120.77516 26686 ft 464 kts 332°
2026-05-06 09:11 32.11801 120.75880 26869 ft 459 kts 326°
2026-05-06 09:11 32.14283 120.73560 26891 ft 456 kts 308°
2026-05-06 09:11 32.16039 120.70478 27087 ft 452 kts 295°
2026-05-06 09:12 32.17204 120.67045 27391 ft 450 kts 284°
2026-05-06 09:12 32.17725 120.63424 27623 ft 448 kts 275°
2026-05-06 09:12 32.17978 120.59800 27793 ft 451 kts 274°
2026-05-06 09:12 32.18220 120.56104 27989 ft 453 kts 274°
2026-05-06 09:13 32.18478 120.52390 28218 ft 454 kts 275°
2026-05-06 09:13 32.18757 120.48674 28439 ft 455 kts 275°
2026-05-06 09:13 32.19053 120.44950 28655 ft 456 kts 275°
2026-05-06 09:13 32.19358 120.41217 28859 ft 458 kts 275°
2026-05-06 09:14 32.19665 120.37474 29059 ft 459 kts 275°
2026-05-06 09:14 32.19972 120.33723 29278 ft 459 kts 275°
2026-05-06 09:14 32.20272 120.30021 29552 ft 458 kts 275°
2026-05-06 09:14 32.20575 120.26280 29859 ft 457 kts 275°
2026-05-06 09:15 32.20882 120.22552 30129 ft 456 kts 275°
2026-05-06 09:15 32.21189 120.18823 30338 ft 456 kts 275°
2026-05-06 09:15 32.21495 120.15090 30544 ft 457 kts 275°
2026-05-06 09:15 32.21800 120.11358 30756 ft 457 kts 275°
2026-05-06 09:16 32.22103 120.07618 30941 ft 458 kts 275°
2026-05-06 09:16 32.22405 120.03878 31143 ft 458 kts 275°
2026-05-06 09:16 32.22702 120.00187 31392 ft 457 kts 275°
2026-05-06 09:16 32.23001 119.96448 31635 ft 457 kts 275°
2026-05-06 09:17 32.23298 119.92717 31798 ft 458 kts 275°
2026-05-06 09:17 32.23896 119.85185 32049 ft 461 kts 275°
2026-05-06 09:17 32.24242 119.81441 32267 ft 457 kts 281°
2026-05-06 09:18 32.25245 119.77877 32324 ft 462 kts 296°
2026-05-06 09:18 32.26994 119.74686 32483 ft 465 kts 307°
2026-05-06 09:18 32.29266 119.71966 32701 ft 466 kts 320°
2026-05-06 09:18 32.31872 119.69756 32860 ft 468 kts 322°
2026-05-06 09:19 32.34563 119.67578 33030 ft 469 kts 322°
2026-05-06 09:19 32.37248 119.65382 33255 ft 468 kts 322°
2026-05-06 09:19 32.39899 119.63165 33501 ft 466 kts 322°
2026-05-06 09:19 32.42530 119.60926 33746 ft 465 kts 321°
2026-05-06 09:20 32.45161 119.58672 33818 ft 468 kts 321°
2026-05-06 09:20 32.50436 119.54137 33880 ft 468 kts 321°
2026-05-06 09:21 32.55637 119.49643 33884 ft 464 kts 321°
2026-05-06 09:21 32.60832 119.45146 33882 ft 461 kts 321°
2026-05-06 09:22 32.65992 119.40674 33877 ft 458 kts 321°
2026-05-06 09:22 32.71133 119.36212 33869 ft 457 kts 321°
2026-05-06 09:23 32.76237 119.31774 33875 ft 458 kts 321°
2026-05-06 09:23 32.81390 119.27288 33873 ft 460 kts 321°
2026-05-06 09:24 32.86563 119.22775 33876 ft 462 kts 320°
2026-05-06 09:24 32.91762 119.18236 33875 ft 465 kts 320°
2026-05-06 09:25 32.96956 119.13712 33876 ft 466 kts 321°
2026-05-06 09:25 33.02214 119.09174 33867 ft 467 kts 321°
2026-05-06 09:26 33.07480 119.04621 33861 ft 468 kts 321°
2026-05-06 09:26 33.12738 119.00059 33853 ft 467 kts 321°
2026-05-06 09:27 33.17990 118.95494 33874 ft 467 kts 320°
2026-05-06 09:27 33.23203 118.90964 33858 ft 466 kts 321°
2026-05-06 09:28 33.28449 118.86408 33851 ft 465 kts 321°
2026-05-06 09:28 33.33686 118.81870 33850 ft 465 kts 321°
2026-05-06 09:29 33.38928 118.77343 33848 ft 464 kts 321°
2026-05-06 09:29 33.44123 118.72842 33847 ft 464 kts 321°
2026-05-06 09:30 33.49351 118.68310 33850 ft 464 kts 320°
2026-05-06 09:30 33.54594 118.63776 33854 ft 465 kts 320°
2026-05-06 09:31 33.59844 118.59227 33847 ft 466 kts 320°
2026-05-06 09:31 33.65068 118.54690 33843 ft 467 kts 320°
2026-05-06 09:32 33.70331 118.50111 33840 ft 468 kts 320°
2026-05-06 09:32 33.75602 118.45518 33855 ft 468 kts 320°
2026-05-06 09:33 33.80877 118.40914 33830 ft 469 kts 319°
2026-05-06 09:33 33.86030 118.36408 33843 ft 469 kts 319°
2026-05-06 09:34 33.91278 118.31811 33827 ft 470 kts 319°
2026-05-06 09:34 33.96560 118.27180 33822 ft 470 kts 319°
2026-05-06 09:35 34.01854 118.22555 33820 ft 470 kts 319°
2026-05-06 09:35 34.07144 118.17942 33832 ft 469 kts 319°
2026-05-06 09:36 34.12423 118.13323 33820 ft 468 kts 319°
2026-05-06 09:36 34.17642 118.08741 33813 ft 466 kts 319°
2026-05-06 09:37 34.22879 118.04138 33820 ft 464 kts 319°
2026-05-06 09:37 34.28453 118.00115 33815 ft 470 kts 329°
2026-05-06 09:38 34.34587 117.97271 33832 ft 475 kts 338°
2026-05-06 09:38 34.40893 117.95079 33813 ft 474 kts 338°
2026-05-06 09:39 34.47228 117.92876 33806 ft 473 kts 338°
2026-05-06 09:39 34.53534 117.90637 33809 ft 472 kts 338°
2026-05-06 09:40 34.59813 117.88387 33823 ft 472 kts 338°
2026-05-06 09:40 34.69217 117.85010 33804 ft 472 kts 338°
2026-05-06 09:41 34.75519 117.82743 33804 ft 472 kts 338°
2026-05-06 09:41 34.81829 117.80473 33801 ft 473 kts 338°
2026-05-06 09:42 34.88145 117.78217 33807 ft 473 kts 337°
2026-05-06 09:42 34.94411 117.75937 33806 ft 473 kts 337°
2026-05-06 09:43 35.00718 117.73633 33797 ft 473 kts 337°
2026-05-06 09:43 35.07018 117.71333 33799 ft 472 kts 337°
2026-05-06 09:44 35.13307 117.69033 33804 ft 472 kts 336°
2026-05-06 09:44 35.19597 117.66723 33798 ft 472 kts 336°
2026-05-06 09:45 35.25833 117.64427 33804 ft 471 kts 336°
2026-05-06 09:45 35.32103 117.62117 33796 ft 471 kts 336°
2026-05-06 09:46 35.38378 117.59800 33806 ft 471 kts 336°
2026-05-06 09:46 35.44651 117.57480 33797 ft 471 kts 336°
2026-05-06 09:47 35.50878 117.55173 33795 ft 471 kts 336°
2026-05-06 09:47 35.57149 117.52847 33792 ft 471 kts 336°
2026-05-06 09:48 35.63418 117.50516 33783 ft 471 kts 336°
2026-05-06 09:48 35.69696 117.48179 33794 ft 471 kts 336°
2026-05-06 09:49 35.75972 117.45837 33770 ft 472 kts 335°
2026-05-06 09:49 35.82214 117.43507 33781 ft 472 kts 335°
2026-05-06 09:50 35.88508 117.41151 33779 ft 473 kts 336°
2026-05-06 09:50 35.94803 117.38792 33774 ft 473 kts 336°
2026-05-06 09:51 36.01100 117.36430 33770 ft 473 kts 336°
2026-05-06 09:51 36.07364 117.34108 33798 ft 474 kts 336°
2026-05-06 09:52 36.13685 117.31775 33774 ft 474 kts 336°
2026-05-06 09:52 36.20000 117.29433 33765 ft 474 kts 336°
2026-05-06 09:53 36.26309 117.27086 33765 ft 473 kts 336°
2026-05-06 09:53 36.32564 117.24753 33801 ft 473 kts 336°
2026-05-06 09:54 36.38869 117.22398 33775 ft 473 kts 336°
2026-05-06 09:54 36.45033 117.19717 33768 ft 466 kts 330°
2026-05-06 09:55 36.50990 117.16589 33784 ft 464 kts 329°
2026-05-06 09:55 36.56886 117.13487 33783 ft 462 kts 329°
2026-05-06 09:56 36.62811 117.10383 33776 ft 463 kts 329°
2026-05-06 09:56 36.68750 117.07280 33766 ft 463 kts 329°
2026-05-06 09:57 36.74685 117.04179 33767 ft 462 kts 329°
2026-05-06 09:57 36.80615 117.01074 33771 ft 462 kts 329°
2026-05-06 09:58 36.86514 116.97978 33776 ft 463 kts 329°
2026-05-06 09:58 36.92457 116.94854 33774 ft 463 kts 329°
2026-05-06 09:59 36.98399 116.91726 33770 ft 463 kts 329°
2026-05-06 09:59 37.04341 116.88590 33769 ft 464 kts 329°
2026-05-06 10:00 37.10250 116.85467 33776 ft 465 kts 328°
2026-05-06 10:00 37.16211 116.82312 33777 ft 466 kts 329°
2026-05-06 10:01 37.22209 116.79189 33776 ft 470 kts 332°
2026-05-06 10:01 37.28509 116.76756 33775 ft 475 kts 335°
2026-05-06 10:02 37.34821 116.74432 33779 ft 477 kts 335°
2026-05-06 10:02 37.41193 116.72049 33784 ft 478 kts 335°
2026-05-06 10:03 37.47576 116.69633 33783 ft 480 kts 335°
2026-05-06 10:03 37.53972 116.67204 33787 ft 480 kts 335°
2026-05-06 10:04 37.60342 116.64781 33798 ft 482 kts 334°
2026-05-06 10:04 37.66768 116.62333 33803 ft 483 kts 334°
2026-05-06 10:05 37.73198 116.59880 33794 ft 483 kts 334°
2026-05-06 10:05 37.79624 116.57424 33834 ft 483 kts 334°
2026-05-06 10:06 37.86063 116.54953 33810 ft 484 kts 333°
2026-05-06 10:06 37.92469 116.52496 33803 ft 484 kts 333°
2026-05-06 10:07 37.98551 116.49238 33811 ft 468 kts 321°
2026-05-06 10:07 38.03891 116.44771 33812 ft 455 kts 314°
2026-05-06 10:08 38.09000 116.40003 33815 ft 457 kts 314°
2026-05-06 10:08 38.14153 116.35276 33813 ft 457 kts 314°
2026-05-06 10:09 38.19264 116.30551 33817 ft 457 kts 314°
2026-05-06 10:09 38.24765 116.26400 33809 ft 480 kts 334°
2026-05-06 10:10 38.28122 116.25665 33887 ft 500 kts 348°
2026-05-06 10:10 38.31661 116.26035 33792 ft 522 kts
2026-05-06 10:10 38.38688 116.28616 33814 ft 528 kts
2026-05-06 10:11 38.45698 116.31197 33829 ft 528 kts
2026-05-06 10:11 38.52804 116.33666 33834 ft 530 kts
2026-05-06 10:12 38.59930 116.36113 33840 ft 531 kts
2026-05-06 10:12 38.67064 116.38587 33870 ft 531 kts
2026-05-06 10:13 38.74137 116.41081 33837 ft 530 kts
2026-05-06 10:13 38.81234 116.43598 33833 ft 528 kts
2026-05-06 10:14 38.88300 116.46101 33854 ft 526 kts
2026-05-06 10:14 38.95344 116.48598 33836 ft 524 kts
2026-05-06 10:15 39.02316 116.51075 33839 ft 523 kts
2026-05-06 10:15 39.09321 116.53567 33847 ft 523 kts
2026-05-06 10:16 39.16333 116.56068 33847 ft 523 kts
2026-05-06 10:16 39.23312 116.58852 33836 ft 528 kts 11°
2026-05-06 10:17 39.30200 116.62081 33849 ft 531 kts 12°
2026-05-06 10:17 39.37152 116.65377 33853 ft 533 kts 11°
2026-05-06 10:18 39.44127 116.68643 33862 ft 534 kts 11°
2026-05-06 10:18 39.51133 116.71907 33843 ft 535 kts 11°
2026-05-06 10:19 39.58097 116.75160 33844 ft 536 kts 11°
2026-05-06 10:19 39.65113 116.78447 33852 ft 537 kts 11°
2026-05-06 10:20 39.72137 116.81747 33850 ft 536 kts 11°
2026-05-06 10:20 39.79197 116.84206 33864 ft 513 kts 356°
2026-05-06 10:21 39.86213 116.84317 33860 ft 496 kts 341°
2026-05-06 10:21 39.92964 116.82898 33857 ft 497 kts 339°
2026-05-06 10:22 39.99816 116.81453 33853 ft 500 kts 340°
2026-05-06 10:22 40.06711 116.80066 33846 ft 501 kts 340°
2026-05-06 10:23 40.13603 116.78697 33833 ft 500 kts 340°
2026-05-06 10:23 40.20422 116.77334 33859 ft 498 kts 340°
2026-05-06 10:24 40.27256 116.75959 33837 ft 495 kts 340°
2026-05-06 10:24 40.34004 116.74458 33831 ft 484 kts 334°
2026-05-06 10:25 40.40348 116.71962 33848 ft 473 kts 330°
2026-05-06 10:25 40.46577 116.69372 33866 ft 473 kts 331°
2026-05-06 10:26 40.52905 116.66777 33856 ft 480 kts 332°
2026-05-06 10:26 40.59321 116.64187 33870 ft 483 kts 331°
2026-05-06 10:27 40.65757 116.61595 33883 ft 483 kts 332°
2026-05-06 10:27 40.72118 116.59022 33869 ft 480 kts 331°
2026-05-06 10:28 40.78598 116.56712 33873 ft 490 kts 338°
2026-05-06 10:28 40.85490 116.55847 33924 ft 501 kts 345°
2026-05-06 10:29 40.92423 116.55314 33941 ft 496 kts 345°
2026-05-06 10:29 40.99276 116.54681 33883 ft 497 kts 344°
2026-05-06 10:30 41.06183 116.54020 33934 ft 498 kts 344°
2026-05-06 10:30 41.13094 116.53362 33894 ft 498 kts 344°
2026-05-06 10:31 41.19988 116.52645 33889 ft 491 kts 340°
2026-05-06 10:31 41.23274 116.51739 33895 ft 475 kts 332°
2026-05-06 10:31 41.26359 116.50317 33952 ft 464 kts 326°
2026-05-06 10:32 41.29201 116.48523 33916 ft 452 kts 319°
2026-05-06 10:32 41.31879 116.46379 33924 ft 448 kts 317°
2026-05-06 10:32 41.37202 116.42118 33913 ft 444 kts 317°
2026-05-06 10:33 41.42494 116.37890 33946 ft 443 kts 318°
2026-05-06 10:33 41.47753 116.33710 33941 ft 442 kts 318°
2026-05-06 10:34 41.53039 116.29516 33956 ft 442 kts 318°
2026-05-06 10:34 41.58321 116.25324 33978 ft 441 kts 318°
2026-05-06 10:35 41.63605 116.21111 33955 ft 443 kts 318°
2026-05-06 10:35 41.68896 116.16887 33969 ft 444 kts 318°
2026-05-06 10:36 41.74170 116.12671 33989 ft 446 kts 317°
2026-05-06 10:36 41.79503 116.08395 33984 ft 448 kts 317°
2026-05-06 10:37 41.84859 116.04094 33976 ft 449 kts 317°
2026-05-06 10:37 41.90227 115.99778 33974 ft 450 kts 317°
2026-05-06 10:38 41.95046 115.94851 34007 ft 428 kts 302°
2026-05-06 10:38 41.98639 115.88669 34021 ft 412 kts 289°
2026-05-06 10:39 42.01337 115.81907 33991 ft 411 kts 288°
2026-05-06 10:39 42.04050 115.75118 33997 ft 412 kts 289°
2026-05-06 10:40 42.06765 115.68372 33995 ft 413 kts 289°
2026-05-06 10:40 42.09509 115.61557 34004 ft 414 kts 289°
2026-05-06 10:41 42.12249 115.54738 34006 ft 414 kts 289°
2026-05-06 10:41 42.14979 115.47927 34010 ft 413 kts 289°
2026-05-06 10:42 42.17683 115.41161 34017 ft 413 kts 289°
2026-05-06 10:42 42.20402 115.34348 34032 ft 412 kts 289°
2026-05-06 10:43 42.22408 115.27336 34034 ft 393 kts 275°
2026-05-06 10:44 42.22999 115.16427 34043 ft 389 kts 262°
2026-05-06 10:44 42.22460 115.09176 34034 ft 393 kts 262°
2026-05-06 10:45 42.21926 115.01829 34044 ft 395 kts 262°
2026-05-06 10:45 42.21401 114.94441 34049 ft 396 kts 262°
2026-05-06 10:46 42.20882 114.87102 34038 ft 395 kts 262°
2026-05-06 10:46 42.20359 114.79741 34040 ft 394 kts 262°
2026-05-06 10:47 42.19832 114.72407 34052 ft 392 kts 262°
2026-05-06 10:47 42.19303 114.65103 34050 ft 391 kts 262°
2026-05-06 10:48 42.18770 114.57818 34041 ft 390 kts 262°
2026-05-06 10:48 42.18238 114.50606 34061 ft 389 kts 262°
2026-05-06 10:49 42.17698 114.43355 34062 ft 389 kts 262°
2026-05-06 10:49 42.17154 114.36110 34078 ft 389 kts 262°
2026-05-06 10:50 42.16605 114.28859 34080 ft 389 kts 262°
2026-05-06 10:50 42.16055 114.21644 34075 ft 390 kts 262°
2026-05-06 10:51 42.15495 114.14376 34076 ft 390 kts 262°
2026-05-06 10:51 42.14929 114.07091 34076 ft 391 kts 262°
2026-05-06 10:52 42.14357 113.99788 34085 ft 392 kts 262°
2026-05-06 10:52 42.13779 113.92472 34094 ft 393 kts 262°
2026-05-06 10:53 42.13200 113.85193 34107 ft 394 kts 262°
2026-05-06 10:53 42.12612 113.77849 34106 ft 395 kts 262°
2026-05-06 10:54 42.12016 113.70488 34106 ft 396 kts 262°
2026-05-06 10:54 42.11414 113.63101 34101 ft 397 kts 262°
2026-05-06 10:55 42.10812 113.55764 34092 ft 397 kts 262°
2026-05-06 10:55 42.10073 113.48413 34112 ft 396 kts 258°
2026-05-06 10:56 42.08716 113.41245 34134 ft 395 kts 256°
2026-05-06 10:56 42.07358 113.34069 34120 ft 396 kts 256°
2026-05-06 10:57 42.05998 113.26888 34120 ft 396 kts 256°
2026-05-06 10:57 42.04638 113.19752 34134 ft 397 kts 256°
2026-05-06 10:58 42.03264 113.12569 34129 ft 397 kts 256°
2026-05-06 10:58 42.01890 113.05380 34139 ft 397 kts 256°
2026-05-06 10:59 42.00511 112.98185 34122 ft 398 kts 256°
2026-05-06 10:59 41.99134 112.91035 34128 ft 398 kts 256°
2026-05-06 11:00 41.97740 112.83822 34155 ft 399 kts 256°
2026-05-06 11:00 41.96340 112.76603 34138 ft 400 kts 256°
2026-05-06 11:01 41.95057 112.69336 34136 ft 400 kts 263°
2026-05-06 11:01 41.95001 112.61842 34145 ft 404 kts 271°
2026-05-06 11:02 41.95976 112.54435 34162 ft 409 kts 281°
2026-05-06 11:02 41.97524 112.47053 34155 ft 411 kts 281°
2026-05-06 11:03 41.99060 112.39647 34164 ft 412 kts 282°
2026-05-06 11:03 42.00575 112.32211 34171 ft 413 kts 282°
2026-05-06 11:04 42.02068 112.24804 34168 ft 413 kts 282°
2026-05-06 11:04 42.03564 112.17336 34178 ft 413 kts 281°
2026-05-06 11:05 42.05055 112.09870 34187 ft 413 kts 282°
2026-05-06 11:05 42.06541 112.02398 34183 ft 413 kts 282°
2026-05-06 11:06 42.08022 111.94934 34174 ft 413 kts 282°
2026-05-06 11:06 42.09485 111.87527 34173 ft 412 kts 282°
2026-05-06 11:07 42.10951 111.80073 34185 ft 411 kts 282°
2026-05-06 11:07 42.12410 111.72629 34185 ft 411 kts 283°
2026-05-06 11:08 42.13864 111.65187 34186 ft 410 kts 283°
2026-05-06 11:08 42.15310 111.57749 34179 ft 410 kts 283°
2026-05-06 11:09 42.16740 111.50371 34180 ft 409 kts 282°
2026-05-06 11:09 42.18174 111.42946 34181 ft 409 kts 282°
2026-05-06 11:10 42.19537 111.35500 34182 ft 408 kts 278°
2026-05-06 11:10 42.19962 111.27892 34181 ft 406 kts 270°
2026-05-06 11:11 42.19597 111.20350 34193 ft 406 kts 263°
2026-05-06 11:11 42.18770 111.12799 34204 ft 408 kts 263°
2026-05-06 11:12 42.17930 111.05228 34197 ft 409 kts 263°
2026-05-06 11:12 42.17099 110.97634 34193 ft 410 kts 263°
2026-05-06 11:13 42.16269 110.90033 34193 ft 410 kts 264°
2026-05-06 11:13 42.15441 110.82474 34200 ft 410 kts 263°
2026-05-06 11:14 42.14602 110.74862 34198 ft 411 kts 264°
2026-05-06 11:14 42.13757 110.67242 34199 ft 411 kts 264°
2026-05-06 11:15 42.12913 110.59675 34204 ft 410 kts 263°
2026-05-06 11:15 42.12060 110.52072 34208 ft 410 kts 263°
2026-05-06 11:16 42.11202 110.44479 34209 ft 410 kts 264°
2026-05-06 11:16 42.10339 110.36885 34212 ft 410 kts 264°
2026-05-06 11:17 42.09471 110.29291 34209 ft 410 kts 264°
2026-05-06 11:17 42.08604 110.21750 34217 ft 410 kts 264°
2026-05-06 11:18 42.07725 110.14155 34207 ft 410 kts 264°
2026-05-06 11:18 42.06842 110.06567 34220 ft 411 kts 264°
2026-05-06 11:19 42.05953 109.98974 34211 ft 411 kts 264°
2026-05-06 11:19 42.05060 109.91390 34213 ft 410 kts 263°
2026-05-06 11:20 42.04168 109.83864 34218 ft 410 kts 263°
2026-05-06 11:20 42.03266 109.76293 34217 ft 410 kts 264°
2026-05-06 11:21 42.02358 109.68718 34221 ft 410 kts 263°
2026-05-06 11:21 42.01445 109.61145 34227 ft 410 kts 263°
2026-05-06 11:22 42.00533 109.53617 34230 ft 411 kts 263°
2026-05-06 11:22 41.99609 109.46038 34226 ft 411 kts 263°
2026-05-06 11:23 41.98680 109.38460 34226 ft 411 kts 263°
2026-05-06 11:23 41.97745 109.30882 34196 ft 411 kts 263°
2026-05-06 11:24 41.96813 109.23366 34223 ft 410 kts 263°
2026-05-06 11:24 41.95871 109.15805 34233 ft 410 kts 263°
2026-05-06 11:25 41.94924 109.08252 34229 ft 410 kts 263°
2026-05-06 11:25 41.93971 109.00696 34238 ft 410 kts 263°
2026-05-06 11:26 41.93020 108.93191 34237 ft 411 kts 263°
2026-05-06 11:26 41.92056 108.85630 34233 ft 411 kts 263°
2026-05-06 11:27 41.91087 108.78064 34243 ft 411 kts 263°
2026-05-06 11:27 41.90111 108.70490 34233 ft 412 kts 263°
2026-05-06 11:28 41.89136 108.62965 34220 ft 412 kts 263°
2026-05-06 11:28 41.88150 108.55393 34236 ft 412 kts 263°
2026-05-06 11:29 41.87158 108.47822 34239 ft 412 kts 263°
2026-05-06 11:29 41.86162 108.40254 34230 ft 412 kts 263°
2026-05-06 11:30 41.85161 108.32686 34241 ft 412 kts 263°
2026-05-06 11:30 41.84160 108.25161 34232 ft 413 kts 263°
2026-05-06 11:31 41.83147 108.17591 34245 ft 413 kts 263°
2026-05-06 11:31 41.82130 108.10018 34249 ft 413 kts 263°
2026-05-06 11:32 41.81107 108.02448 34235 ft 413 kts 263°
2026-05-06 11:32 41.80085 107.94925 34256 ft 413 kts 263°
2026-05-06 11:33 41.79053 107.87361 34250 ft 413 kts 263°
2026-05-06 11:33 41.78015 107.79798 34234 ft 413 kts 263°
2026-05-06 11:34 41.77149 107.73515 34238 ft 413 kts 263°
2026-05-06 11:34 41.75931 107.64723 34244 ft 414 kts 262°
2026-05-06 11:35 41.74875 107.57141 34242 ft 415 kts 262°
2026-05-06 11:35 41.73811 107.49547 34237 ft 415 kts 262°
2026-05-06 11:36 41.72922 107.43225 34238 ft 416 kts 262°
2026-05-06 11:36 41.71672 107.34381 34244 ft 416 kts 262°
2026-05-06 11:37 41.70772 107.28050 34216 ft 417 kts 262°
2026-05-06 11:37 41.69685 107.20437 34238 ft 417 kts 262°
2026-05-06 11:38 41.68593 107.12825 34243 ft 417 kts 262°
2026-05-06 11:38 41.67318 107.03979 34214 ft 417 kts 262°
2026-05-06 11:39 41.66395 106.97609 34241 ft 416 kts 262°
2026-05-06 11:39 41.65296 106.90055 34239 ft 417 kts 262°
2026-05-06 11:40 41.64184 106.82450 34237 ft 417 kts 262°
2026-05-06 11:40 41.63065 106.74841 34234 ft 417 kts 262°
2026-05-06 11:41 41.61942 106.67233 34235 ft 418 kts 262°
2026-05-06 11:41 41.60819 106.59670 34236 ft 418 kts 262°
2026-05-06 11:42 41.59685 106.52063 34227 ft 417 kts 262°
2026-05-06 11:42 41.58546 106.44461 34231 ft 417 kts 262°
2026-05-06 11:43 41.57404 106.36872 34228 ft 417 kts 262°
2026-05-06 11:43 41.56257 106.29288 34217 ft 417 kts 262°
2026-05-06 11:44 41.54536 106.17968 34218 ft 417 kts 262°
2026-05-06 11:44 41.53296 106.10400 34220 ft 419 kts 258°
2026-05-06 11:45 41.51272 106.03057 34216 ft 423 kts 252°
2026-05-06 11:45 41.49079 105.95833 34189 ft 423 kts 253°
2026-05-06 11:46 41.46897 105.88570 34202 ft 421 kts 253°
2026-05-06 11:46 41.44719 105.81338 34204 ft 420 kts 253°
2026-05-06 11:47 41.42543 105.74138 34201 ft 418 kts 253°
2026-05-06 11:47 41.40370 105.66965 34201 ft 417 kts 253°
2026-05-06 11:48 41.38207 105.59862 34191 ft 416 kts 252°
2026-05-06 11:48 41.35997 105.52740 34190 ft 416 kts 252°
2026-05-06 11:49 41.33775 105.45622 34177 ft 416 kts 252°
2026-05-06 11:49 41.31569 105.38565 34191 ft 416 kts 252°
2026-05-06 11:50 41.29347 105.31465 34189 ft 416 kts 252°
2026-05-06 11:50 41.27119 105.24362 34175 ft 417 kts 252°
2026-05-06 11:51 41.24882 105.17249 34184 ft 418 kts 252°
2026-05-06 11:51 41.22632 105.10117 34186 ft 419 kts 252°
2026-05-06 11:52 41.20388 105.03022 34153 ft 420 kts 252°
2026-05-06 11:52 41.18124 104.95882 34169 ft 419 kts 252°
2026-05-06 11:53 41.15858 104.88754 34177 ft 419 kts 252°
2026-05-06 11:53 41.13589 104.81635 34177 ft 419 kts 252°
2026-05-06 11:54 41.11334 104.74577 34192 ft 419 kts 252°
2026-05-06 11:54 41.09076 104.67467 34193 ft 418 kts 252°
2026-05-06 11:55 41.06915 104.60322 34194 ft 417 kts 253°
2026-05-06 11:55 41.04762 104.53192 34176 ft 416 kts 253°
2026-05-06 11:56 41.02613 104.46133 34183 ft 416 kts 253°
2026-05-06 11:56 41.00443 104.39037 34180 ft 415 kts 253°
2026-05-06 11:57 40.99300 104.31762 34190 ft 402 kts 272°
2026-05-06 11:57 41.00002 104.24423 34171 ft 405 kts 288°
2026-05-06 11:58 41.02030 104.17472 34169 ft 410 kts 290°
2026-05-06 11:58 41.04123 104.10392 34172 ft 415 kts 289°
2026-05-06 11:59 41.06193 104.03266 34157 ft 411 kts 289°
2026-05-06 11:59 41.08207 103.96247 34167 ft 406 kts 289°
2026-05-06 12:00 41.10203 103.89246 34163 ft 406 kts 289°
2026-05-06 12:00 41.12178 103.82297 34153 ft 406 kts 289°
2026-05-06 12:01 41.14164 103.75290 34159 ft 406 kts 289°
2026-05-06 12:01 41.16152 103.68262 34157 ft 407 kts 289°
2026-05-06 12:02 41.18143 103.61204 34171 ft 410 kts 289°
2026-05-06 12:02 41.20147 103.54078 34377 ft 413 kts 289°
2026-05-06 12:03 41.21137 103.50551 34587 ft 412 kts 289°
2026-05-06 12:03 41.22137 103.46984 34749 ft 413 kts 289°
2026-05-06 12:03 41.23137 103.43410 34932 ft 413 kts 289°
2026-05-06 12:03 41.24135 103.39839 35123 ft 412 kts 289°
2026-05-06 12:04 41.25133 103.36266 35315 ft 412 kts 289°
2026-05-06 12:04 41.26128 103.32695 35497 ft 412 kts 289°
2026-05-06 12:04 41.27121 103.29126 35672 ft 412 kts 289°
2026-05-06 12:04 41.28113 103.25555 35848 ft 412 kts 289°
2026-05-06 12:05 41.29091 103.22032 36009 ft 412 kts 289°
2026-05-06 12:05 41.30082 103.18456 36062 ft 413 kts 289°
2026-05-06 12:05 41.32069 103.11265 36136 ft 415 kts 289°
2026-05-06 12:06 41.34055 103.04065 36134 ft 414 kts 289°
2026-05-06 12:06 41.36043 102.96869 36132 ft 414 kts 289°
2026-05-06 12:07 41.38097 102.89764 36130 ft 414 kts 289°
2026-05-06 12:07 41.40167 102.82623 36130 ft 413 kts 289°
2026-05-06 12:08 41.42221 102.75479 36108 ft 413 kts 289°
2026-05-06 12:08 41.44254 102.68380 36123 ft 413 kts 289°
2026-05-06 12:09 41.46311 102.61239 36118 ft 413 kts 289°
2026-05-06 12:09 41.48364 102.54092 36117 ft 413 kts 289°
2026-05-06 12:10 41.50411 102.46937 36117 ft 413 kts 289°
2026-05-06 12:10 41.52459 102.39766 36105 ft 414 kts 289°
2026-05-06 12:11 41.54507 102.32572 36114 ft 416 kts 289°
2026-05-06 12:11 41.56547 102.25390 36109 ft 417 kts 289°
2026-05-06 12:12 41.58603 102.18125 36105 ft 419 kts 289°
2026-05-06 12:12 41.60660 102.10838 36111 ft 420 kts 289°
2026-05-06 12:13 41.62719 102.03526 36094 ft 421 kts 289°
2026-05-06 12:13 41.64762 101.96246 36103 ft 421 kts 289°
2026-05-06 12:14 41.66816 101.88905 36106 ft 422 kts 289°
2026-05-06 12:14 41.68867 101.81556 36111 ft 422 kts 289°
2026-05-06 12:15 41.70911 101.74207 36097 ft 421 kts 289°
2026-05-06 12:15 41.72936 101.66908 36086 ft 421 kts 289°
2026-05-06 12:16 41.74969 101.59558 36092 ft 421 kts 289°
2026-05-06 12:16 41.77000 101.52195 36097 ft 421 kts 289°
2026-05-06 12:17 41.79027 101.44820 36093 ft 422 kts 289°
2026-05-06 12:17 41.81052 101.37436 36092 ft 422 kts 289°
2026-05-06 12:18 41.83060 101.30090 36092 ft 423 kts 289°
2026-05-06 12:18 41.84653 101.22521 36100 ft 422 kts 280°
2026-05-06 12:19 41.85346 101.14708 36096 ft 423 kts 273°
2026-05-06 12:19 41.85526 101.06823 36100 ft 424 kts 272°
2026-05-06 12:20 41.85690 100.98918 36095 ft 424 kts 272°
2026-05-06 12:20 41.85860 100.91056 36097 ft 425 kts 272°
2026-05-06 12:21 41.86035 100.83138 36085 ft 425 kts 272°
2026-05-06 12:21 41.86209 100.75217 36083 ft 425 kts 272°
2026-05-06 12:22 41.86377 100.67294 36088 ft 425 kts 272°
2026-05-06 12:22 41.86539 100.59431 36086 ft 424 kts 272°
2026-05-06 12:23 41.86696 100.51520 36069 ft 424 kts 272°
2026-05-06 12:23 41.86847 100.43614 36079 ft 424 kts 272°
2026-05-06 12:24 41.86993 100.35706 36080 ft 424 kts 272°
2026-05-06 12:24 41.87133 100.27801 36079 ft 424 kts 272°
2026-05-06 12:25 41.87268 100.19942 36069 ft 424 kts 272°
2026-05-06 12:25 41.87397 100.12024 36080 ft 425 kts 272°
2026-05-06 12:26 41.87522 100.04096 36080 ft 426 kts 272°
2026-05-06 12:26 41.87641 99.96147 36080 ft 426 kts 272°
2026-05-06 12:27 41.87755 99.88244 36080 ft 427 kts 272°
2026-05-06 12:27 41.87864 99.80269 36067 ft 428 kts 272°
2026-05-06 12:28 41.87967 99.72280 36083 ft 429 kts 272°
2026-05-06 12:28 41.88065 99.64275 36085 ft 430 kts 271°
2026-05-06 12:29 41.88158 99.56254 36083 ft 430 kts 271°
2026-05-06 12:29 41.88244 99.48275 36086 ft 431 kts 271°
2026-05-06 12:30 41.88326 99.40235 36082 ft 431 kts 271°
2026-05-06 12:30 41.88403 99.32185 36086 ft 431 kts 271°
2026-05-06 12:31 41.88473 99.24136 36087 ft 431 kts 271°
2026-05-06 12:31 41.88538 99.16144 36093 ft 431 kts 271°
2026-05-06 12:32 41.88597 99.08093 36081 ft 431 kts 271°
2026-05-06 12:32 41.88651 99.00049 36099 ft 431 kts 271°
2026-05-06 12:33 41.88699 98.92011 36099 ft 431 kts 271°
2026-05-06 12:33 41.88741 98.84030 36100 ft 431 kts 271°
2026-05-06 12:34 41.88778 98.75995 36105 ft 431 kts 271°
2026-05-06 12:34 41.88810 98.67958 36092 ft 431 kts 271°